Regional Weather Roundup
Issued by NWS

Home | Current Version | Previous Version | Graphics & Text | Print | Product List | Glossary On
Versions: 1 2 3 4 5 6 7 8 9 10 11 12 13 14 15 16 17 18 19 20 21 22 23 24 25 26 27 28 29 30 31 32 33 34 35 36 37 38 39 40 41 42 43 44 45 46 47 48 49 50
000
ASUS43 KLMK 271202
RWRKY
KENTUCKY REGIONAL WEATHER ROUNDUP
NATIONAL WEATHER SERVICE LOUISVILLE KY
700 AM EST TUE JAN 27 2015

NOTE "FAIR" INDICATES FEW OR NO CLOUDS BELOW 12,000 FEET
WITH NO SIGNIFICANT WEATHER AND/OR OBSTRUCTIONS TO VISIBILITY.

KYZ001>023-026-027-061>063-070>075-271300-
WESTERN AND SOUTH CENTRAL KENTUCKY

CITY           SKY/WX    TMP DP  RH WIND       PRES   REMARKS
PADUCAH        CLEAR     34  30  85 VRB3      29.99R
HENDERSON      CLOUDY    32  28  86 N3        29.97R
OWENSBORO      CLOUDY    31  31 100 CALM      29.97R FOG
HOPKINSVILLE   CLEAR     33  30  88 W7        29.94R WCI  27
BOWLING GREEN  CLOUDY    32  30  92 NE3       29.95R FOG
GLASGOW        NOT AVBL
$$

KYZ024-025-028>034-038-045-046-053-271300-
NORTH CENTRAL KENTUCKY

CITY           SKY/WX    TMP DP  RH WIND       PRES   REMARKS
LOUISVILLE/SDF FLURRIES  30  26  85 N7        29.96R WCI  23
LOUISVILLE/LOU CLOUDY    30  26  85 N3        29.96R
FORT KNOX      CLOUDY    28  27  93 NW1       29.93R
$$

KYZ035>037-039>044-047>052-055>060-089>105-271300-
NORTHEAST KENTUCKY

CITY           SKY/WX    TMP DP  RH WIND       PRES   REMARKS
LEXINGTON      LGT SNOW  27  24  89 N6        29.93R FOG     WCI  20
COVINGTON      CLOUDY    21  13  71 N8        29.97R WCI  11
FRANKFORT      CLOUDY    28  24  85 N3        29.93R
$$

KYZ054-064>069-076>088-106>120-271300-
SOUTHEAST KENTUCKY

CITY           SKY/WX    TMP DP  RH WIND       PRES   REMARKS
JACKSON        CLOUDY    26  22  84 N3        29.89R
LONDON         CLOUDY    30  24  78 NW6       29.90R WCI  24
SOMERSET       NOT AVBL
MIDDLESBORO    NOT AVBL
MONTICELLO     LGT SNOW  31  30  96 CALM      29.95R FOG
$$



USA.gov is the U.S. government's official web portal to all federal, state and local government web resources and services.